Showing default

LEMUR 2 JK0903EM1407, 58336

Orbit data source: Space-Track

LEMUR 2 JK0903EM1407, 58336 is an American payload satellite in SSO that was launched on Sat, 11 Nov 2023 UTC via an FALCON 9 launch vehicle from the Air Force Western Test Range (AFWTR). Payload-class satellites include a variety of spacecraft equipped with specific instruments for various scientific and technological missions. These include communications satellites like Starlink; space stations such as the ISS; scientific satellites like the Hubble; Earth observation satellites from companies like Planet Labs, Umbra, and HawkEye 360; GPS; miniature CubeSats for education and research; and military/defense satellites.

Loading next visibility...
Identifier
58336, 2023-174CJ
Orbit
SSO
Country
Flag of USUS
Related business
Manufacturer
Spire/Glasgow
Mission
Operational Commercial Earth Obs Sci
Bus & Motor
CUBESAT 16U, Unknown motor
Mass
~20 kg wet, ~20 kg dry
Launch date (UTC)
2023-11-11 (2 years ago)
Launch vehicle
FALCON 9
Launch site
Air Force Western Test Range (AFWTR)
Object type
Payload
Rocket body
Debris
Shape & HBR
Box, 0.2 m
Radar Cross Section
0.240 m², Medium (>0.1 m² and < 1m²)

Expand to show TLE details & history
Last TLE update: 20 hours ago

TLE from 20 hours ago
0 LEMUR 2 JK0903EM1407
1 58336U 23174CJ  26126.19605015  .00022007  00000-0  39884-3 0  9992
2 58336  97.3884 215.5685 0004044 250.4647 109.6168 15.49634054139227
Epoch: 2026-05-06T04:42Z
TLE epoch observation values (Epoch: 2026-05-06T04:42:18.732Z)
Latitude
-0.00002°
Longitude
-79.06956°
Altitude
421.851 km
Speed
7.658 km/s
True Right ascension
14h 22m 16s
True Declination
0° 00' 00"
Sunlit
Object was in full shadow at epoch
Visualization orbit readout
Latitude
Unknown
Longitude
Unknown
Altitude
Unknown
Speed
Unknown
Apparent Right ascension
Unknown
Apparent Declination
Unknown
Sunlit
N/A
Visualization observer readout
Local Sidereal Time
08:28:48
Azimuth
Unknown
Elevation
Unknown
Doppler factor
Unknown
Orbital elements
Apogee altitude
417.468 km
Perigee altitude
411.974 km
Semi-major axis
6,792.858 km
Eccentricity
0.0004
Inclination
97.3884°
RAAN
215.5685°
Arg. of periapsis
250.4647°
True anomaly
109.66044°
Mean anomaly
109.6168°
Eccentric anomaly
109.63862°
Mean motion
3.87672 °/min
Orbital period
92.86 mins
BSTAR
0.00039884
Loading maneuver chart data...
Computing Atmospheric mass density...
Loading historical data...
Loading historical data...
Loading historical data...
Loading historical data...
Loading historical data...
Loading historical data...
Loading historical data...

Documentation

Showing up to 5 results
|